Location: Newark
(45.9456°N, 15.4064°E)
Time: 14:41:38
(UTC+00:00)

SR - Pass Details

Date: 29 January 2020
Orbit: 575 x 880 km, 66.7° (Epoch: 22 February)

Event Time Altitude Azimuth Distance (km) Brightness Sun altitude
Rises 06:11:52 0° 317° (NW) 3,362 - -2.9°
Exits shadow 06:12:09 - 316° (NW) 3,263 ? -2.8°
Reaches altitude 10° 06:14:51 10° 303° (WNW) 2,375 ? -2.4°
Maximum altitude 06:19:00 23° 253° (WSW) 1,585 ? -1.7°
Drops below altitude 10° 06:22:55 10° 202° (SSW) 2,205 ? -1.1°
Sets 06:25:34 0° 188° (S) 3,063 ? -0.7°
